sat.trackr.live / text

‹ back to catalog

GEOSCAN 5 (RS92S5)

NORAD 64891 · 2025-155R

PAYLOAD ACTIVE UNKNOWN

§ Identity

Operator
Country
CIS
Launch date
2025-07-25
Launch site
VOSTO
Launch vehicle
Mass (kg)
RCS (m²)

Purposes: comms

External: N2YO · Heavens-Above · Gunter

§ Orbital elements

Epoch: 2026-09-19T23:03:36.861120Z

Period
93.77 min
Inclination
97.4656°
Eccentricity
0.0005416
Mean motion
15.35620543 rev/d
Perigee alt
455.4 km
Apogee alt
462.8 km
Semi-major
6,837.2 km
B*
3.1099e-4
RAAN
233.3859°
Arg perigee
180.5495°
Mean anomaly
179.5743°
Rev number
9,535

§ Raw data

GEOSCAN 5 (RS92S5)1 64891U 25155R   26262.96084330  .00010695  00000+0  31099-3 0  99922 64891  97.4656 233.3859 0005416 180.5495 179.5743 15.35620543 95350

JSON: /api/v1/satellites/64891 · /tle

For live sub-satellite position, see the globe view (requires WebGL).

§ Visibility from observer

Set your observer location to see the next 7 days of passes ≥ 10°. The values pass through the URL so the page stays shareable.

No JS? Fill the form by hand. The geolocation button needs JavaScript.

§ Radio — SatNOGS DB

ModeDescriptionDownlinkUplink
GFSK Mode U - GFSK9k6 - AX.25 Beacon and Ham Payload (Geoscan framing) 436.660 MHz

1 transmitter · refreshed weekly from db.satnogs.org